This demonstration page uses our WeatherBlox Daily Observations layout. Learn more.

Left ArrowRight Arrow

39.29038, -76.61219

Hourly Observations for July 9, 2020

Temp ( °F °C ) Dew Point ( °F °C ) Humidity (%) Winds ( mph kmh ) Pressure ( in mb ) Visibility ( mi km ) Precip ( " mm )
12:54 am 00:54 Mostly Clear 78 25.6 70 21.1 76 76 Calm 29.93 1014 10 16 0.00 0.00
1:54 am 01:54 Mostly Clear 76 24.4 70 21.1 82 82 Calm 29.94 1014 10 16 0.00 0.00
2:54 am 02:54 Partly Cloudy 74 23.3 70 21.1 88 88 Calm 29.95 1014 10 16 0.00 0.00
3:54 am 03:54 Mostly Clear 74 23.3 70 21.1 88 88 Calm 29.93 1014 10 16 0.00 0.00
4:54 am 04:54 Mostly Clear 72 22.2 69 20.6 91 91 NW 5 7 29.94 1014 10 16 0.00 0.00
5:54 am 05:54 Mostly Cloudy 74 23.3 70 21.1 88 88 Calm 29.95 1014 10 16 0.00 0.00
6:24 am 06:24 Partly Cloudy 75 23.9 71 21.7 88 88 Calm 29.96 1015 10 16 0.00 0.00
6:54 am 06:54 Mostly Sunny 76 24.4 72 22.2 88 88 E 3 6 29.97 1015 8 13 0.00 0.00
7:54 am 07:54 Partly Cloudy 78 25.6 74 23.3 87 87 ESE 5 7 29.98 1015 10 16 0.00 0.00
8:54 am 08:54 Partly Cloudy 81 27.2 73 22.8 77 77 E 7 11 29.98 1015 10 16 0.00 0.00
9:54 am 09:54 Partly Cloudy 83 28.3 71 21.7 67 67 ESE 9 15 29.98 1015 10 16 0.00 0.00
10:54 am 10:54 Partly Cloudy 85 29.4 70 21.1 61 61 E 9 15 29.98 1015 10 16 0.00 0.00
11:54 am 11:54 Mostly Cloudy 86 30 70 21.1 59 59 E 8 13 29.98 1015 10 16 0.00 0.00
12:54 pm 12:54 Partly Cloudy 87 30.6 70 21.1 57 57 ENE 13 20 29.97 1015 10 16 0.00 0.00
1:54 pm 13:54 Partly Cloudy 88 31.1 70 21.1 55 55 SE 6 9 29.96 1014 10 16 0.00 0.00
2:54 pm 14:54 Partly Cloudy 89 31.7 70 21.1 53 53 ESE 8 13 29.95 1014 10 16 0.00 0.00
3:54 pm 15:54 Partly Cloudy 89 31.7 71 21.7 55 55 ENE 14 22 29.94 1014 10 16 0.00 0.00
4:54 pm 16:54 Partly Cloudy 89 31.7 69 20.6 52 52 E 13 20 29.93 1013 10 16 0.00 0.00
5:54 pm 17:54 Partly Cloudy 88 31.1 70 21.1 55 55 E 10 17 29.92 1013 10 16 0.00 0.00
6:54 pm 18:54 Partly Cloudy 87 30.6 69 20.6 55 55 E 10 17 29.91 1013 10 16 0.00 0.00
7:54 pm 19:54 Partly Cloudy 85 29.4 69 20.6 59 59 E 10 17 29.91 1013 10 16 0.00 0.00
8:54 pm 20:54 Partly Cloudy 82 27.8 69 20.6 65 65 E 9 15 29.91 1013 10 16 0.00 0.00
9:54 pm 21:54 Partly Cloudy 81 27.2 70 21.1 69 69 E 9 15 29.92 1013 10 16 0.00 0.00
10:54 pm 22:54 Partly Cloudy 79 26.1 71 21.7 77 77 E 10 17 29.91 1013 10 16 0.00 0.00
11:54 pm 23:54 Partly Cloudy 78 25.6 71 21.7 79 79 E 7 11 29.93 1013 10 16 0.00 0.00

Powered by AerisWeather